Simultaneous Nadir Overpasses (SNOs) Predictions

Prediction of SNOs between METOP-B and NOAA-19 Satellite Orbit:

Table of predicted SNOs for the next 14.0 days since TLE Epoch: 2/10/2024
Index Date (METOP-B) Time (METOP-B) Lat,Lon (METOP-B) SZA (METOP-B ) Date (NOAA-19) Time (NOAA-19) Lat,Lon (NOAA-19) SZA (NOAA-19 ) Distance(km) Time Diff (sec)
1 02/11/2024 03:24:26 80.11, 150.44 94.73 02/11/2024 03:23:26 80.10, 150.43 94.72 0.24 60
2 02/11/2024 04:15:07 -80.12, -42.11 85.27 02/11/2024 04:14:26 -80.13, -42.00 85.26 2.45 41
3 02/11/2024 05:05:46 80.15, 125.61 94.78 02/11/2024 05:05:22 80.16, 125.70 94.79 1.85 24
4 02/11/2024 05:56:26 -80.19, -66.64 85.17 02/11/2024 05:56:22 -80.18, -66.73 85.19 2.18 4
5 02/11/2024 06:47:06 80.20, 100.79 94.83 02/11/2024 06:47:19 80.19, 100.66 94.82 2.70 13
6 02/11/2024 07:37:46 -80.24, -91.45 85.12 02/11/2024 07:38:18 -80.24, -91.46 85.12 0.36 32
7 02/11/2024 08:28:26 80.25, 75.98 94.89 02/11/2024 08:29:15 80.25, 75.94 94.89 0.67 49
8 02/11/2024 09:19:07 -80.26,-116.58 85.12 02/11/2024 09:20:15 -80.27,-116.50 85.09 1.80 68
9 02/22/2024 20:41:07 -79.93, 69.49 89.58 02/22/2024 20:40:00 -79.94, 69.53 89.59 0.94 67
10 02/22/2024 21:31:46 79.96,-122.89 90.45 02/22/2024 21:30:59 79.97,-122.83 90.45 1.16 47
11 02/22/2024 22:22:27 -79.98, 44.63 89.54 02/22/2024 22:21:56 -80.00, 44.76 89.52 2.84 31
12 02/22/2024 23:13:05 80.04,-147.44 90.54 02/22/2024 23:12:54 80.05,-147.29 90.56 3.11 11
13 02/23/2024 00:03:46 -80.06, 20.08 89.45 02/23/2024 00:03:52 -80.05, 20.00 89.46 1.84 6
14 02/23/2024 00:54:25 80.09,-172.28 90.59 02/23/2024 00:54:51 80.08,-172.35 90.59 1.52 26
15 02/23/2024 01:45:06 -80.11, -4.76 89.40 02/23/2024 01:45:48 -80.11, -4.75 89.39 0.08 42



Historial Predications of SNOs between METOP-B and NOAA-19
